, AK

(GMT )
Denali Park

Weather History for PAIN - November, 2013

Change the Weather History Date:

Friday, November 15, 2013

  Actual Average Record
Temperature  
Mean Temperature 14 °F -  
Max Temperature 19 °F 14 °F 34 °F (1961)
Min Temperature 10 °F -2 °F -28 °F (1969)
Degree Days  
Heating Degree Days 50    
Moisture  
Dew Point 13 °F    
Average Humidity 89    
Maximum Humidity 100    
Minimum Humidity 74    
Precipitation  
Precipitation 0.00 in - - ()
Sea Level Pressure  
Sea Level Pressure 29.98 in    
Wind  
Wind Speed 4 mph (North)    
Max Wind Speed 10 mph    
Max Gust Speed 18 mph    
Visibility 7 miles    
Events      
Averages and records for this station are not official NWS values.
T = Trace of Precipitation, MM = Missing Value Source: NWS Daily Summary

Daily Weather History Graph

Daily Weather History Graph

Search for Another Location

Airport or City:

Trip Planner

Search our weather history database for the weather conditions in past years. The results will help you decide how hot, cold, wet, or windy it might be!

Date:

Astronomy

Nov. 15, 2013 Rise Set
Actual Time 9:22 AM AKST 3:57 PM AKST
Civil Twilight 8:23 AM AKST 4:56 PM AKST
Nautical Twilight 7:23 AM AKST 5:56 PM AKST
Astronomical Twilight 6:27 AM AKST 6:51 PM AKST
Moon 3:31 PM AKST (11/15) 6:52 AM AKST (11/15)
Length of Visible Light 8h 33m
Length of Day
6h 35m
Waxing Gibbous, 97% of the Moon is Illuminated
Nov 15
Waxing Gibbous
Nov 17
Full
Nov 25
Last Quarter
Dec 2
New
Dec 9
First Quarter

Hourly Weather History & Observations

Time (AKST) Temp. Windchill Dew Point Humidity Pressure Visibility Wind Dir Wind Speed Gust Speed Precip Events Conditions
12:16 AM 19.4 °F 12.8 °F 14.0 °F 80% 30.02 in 10.0 mi North 4.6 mph - N/A   Overcast
12:36 AM 19.4 °F 11.5 °F 12.2 °F 74% 30.02 in 10.0 mi NW 5.8 mph - N/A   Overcast
12:56 AM 19.4 °F 11.5 °F 14.0 °F 80% 30.02 in 10.0 mi NW 5.8 mph - N/A   Overcast
1:16 AM 19.4 °F 12.8 °F 12.2 °F 74% 30.02 in 10.0 mi NNW 4.6 mph - N/A   Overcast
1:36 AM 19.4 °F 7.9 °F 14.0 °F 80% 30.02 in 10.0 mi NNE 10.4 mph 16.1 mph N/A   Overcast
1:56 AM 19.4 °F 7.9 °F 15.8 °F 86% 30.03 in 10.0 mi North 10.4 mph 17.3 mph N/A   Overcast
2:16 AM 19.4 °F 10.4 °F 15.8 °F 86% 30.05 in 8.0 mi North 6.9 mph - N/A   Overcast
2:36 AM 19.4 °F 7.9 °F 15.8 °F 86% 30.05 in 9.0 mi North 10.4 mph 16.1 mph N/A   Overcast
2:56 AM 19.4 °F 10.4 °F 15.8 °F 86% 30.05 in 5.0 mi NNW 6.9 mph - N/A   Overcast
3:16 AM 19.4 °F 11.5 °F 15.8 °F 86% 30.05 in 6.0 mi North 5.8 mph - N/A   Mostly Cloudy
3:36 AM 19.4 °F 14.3 °F 15.8 °F 86% 30.05 in 5.0 mi North 3.5 mph 16.1 mph N/A   Mostly Cloudy
3:56 AM 19.4 °F 12.8 °F 15.8 °F 86% 30.05 in 7.0 mi North 4.6 mph - N/A   Mostly Cloudy
4:16 AM 17.6 °F 6.4 °F 15.8 °F 93% 30.04 in 5.0 mi North 9.2 mph - N/A   Mostly Cloudy
4:36 AM 17.6 °F 8.2 °F 15.8 °F 93% 30.04 in 9.0 mi North 6.9 mph 16.1 mph N/A   Overcast
4:56 AM 17.6 °F 9.3 °F 15.8 °F 93% 30.04 in 10.0 mi North 5.8 mph - N/A   Overcast
5:16 AM 17.6 °F 5.7 °F 15.8 °F 93% 30.04 in 5.0 mi North 10.4 mph 16.1 mph N/A   Overcast
5:36 AM 17.6 °F 6.4 °F 15.8 °F 93% 30.03 in 5.0 mi North 9.2 mph - N/A   Overcast
5:56 AM 17.6 °F 6.4 °F 15.8 °F 93% 30.03 in 8.0 mi North 9.2 mph - N/A   Overcast
6:16 AM 17.6 °F 8.2 °F 15.8 °F 93% 30.04 in 9.0 mi North 6.9 mph - N/A   Overcast
6:36 AM 17.6 °F 7.3 °F 15.8 °F 93% 30.04 in 9.0 mi NNE 8.1 mph - N/A   Overcast
6:56 AM 17.6 °F 10.7 °F 15.8 °F 93% 30.04 in 10.0 mi NNE 4.6 mph - N/A   Overcast
7:16 AM 17.6 °F 12.3 °F 14.0 °F 86% 30.04 in 10.0 mi North 3.5 mph - N/A   Overcast
7:36 AM 15.8 °F - 12.2 °F 86% 30.03 in 10.0 mi Calm Calm - N/A   Overcast
7:56 AM 15.8 °F - 12.2 °F 86% 30.02 in 10.0 mi Calm Calm - N/A   Overcast
8:16 AM 14.0 °F - 10.4 °F 86% 30.02 in 10.0 mi Calm Calm - N/A   Overcast
8:36 AM 12.2 °F - 10.4 °F 92% 30.02 in 10.0 mi Calm Calm - N/A   Overcast
8:56 AM 12.2 °F - 10.4 °F 92% 30.01 in 10.0 mi Calm Calm - N/A   Overcast
9:16 AM 12.2 °F - 10.4 °F 92% 30.01 in 10.0 mi Calm Calm - N/A   Overcast
9:36 AM 12.2 °F - 10.4 °F 92% 30.00 in 10.0 mi Calm Calm - N/A   Mostly Cloudy
9:56 AM 10.4 °F - 8.6 °F 92% 30.00 in 10.0 mi Calm Calm - N/A   Scattered Clouds
10:16 AM 10.4 °F - 8.6 °F 92% 30.00 in 10.0 mi Calm Calm - N/A   Mostly Cloudy
10:36 AM 10.4 °F - 8.6 °F 92% 30.00 in 10.0 mi Calm Calm - N/A   Overcast
10:56 AM 10.4 °F - 8.6 °F 92% 29.99 in 10.0 mi Calm Calm - N/A   Overcast
11:16 AM 12.2 °F - 10.4 °F 92% 30.00 in 10.0 mi Calm Calm - N/A   Overcast
11:36 AM 12.2 °F - 12.2 °F 100% 29.99 in 10.0 mi Calm Calm - N/A   Overcast
11:56 AM 14.0 °F - 12.2 °F 93% 29.98 in 10.0 mi Calm Calm - N/A   Overcast
12:16 PM 15.8 °F - 12.2 °F 86% 29.98 in 10.0 mi Calm Calm - N/A   Overcast
12:36 PM 15.8 °F - 12.2 °F 86% 29.96 in 10.0 mi Calm Calm - N/A   Scattered Clouds
12:56 PM 15.8 °F - 12.2 °F 86% 29.96 in 10.0 mi Calm Calm - N/A   Mostly Cloudy
1:16 PM 15.8 °F - 14.0 °F 93% 29.95 in 10.0 mi Calm Calm - N/A   Overcast
1:36 PM 15.8 °F - 12.2 °F 86% 29.95 in 10.0 mi Calm Calm - N/A   Overcast
1:56 PM 15.8 °F - 12.2 °F 86% 29.94 in 10.0 mi Calm Calm - N/A   Overcast
2:16 PM 15.8 °F - 12.2 °F 86% 29.94 in 10.0 mi Calm Calm - N/A   Overcast
2:36 PM 15.8 °F - 14.0 °F 93% 29.93 in 10.0 mi Calm Calm - N/A   Overcast
2:56 PM 15.8 °F - 14.0 °F 93% 29.93 in 10.0 mi Calm Calm - N/A   Overcast
3:16 PM 15.8 °F - 12.2 °F 86% 29.94 in 10.0 mi Calm Calm - N/A   Overcast
3:36 PM 15.8 °F - 12.2 °F 86% 29.93 in 10.0 mi Calm Calm - N/A   Overcast
3:56 PM 15.8 °F - 12.2 °F 86% 29.93 in 10.0 mi Calm Calm - N/A   Overcast
4:16 PM 15.8 °F - 12.2 °F 86% 29.92 in 5.0 mi Calm Calm - N/A   Overcast
4:36 PM 14.0 °F - 12.2 °F 93% 29.92 in 3.0 mi Calm Calm - N/A   Overcast
4:56 PM 14.0 °F - 12.2 °F 93% 29.92 in 3.0 mi Calm Calm - N/A   Overcast
5:16 PM 14.0 °F - 12.2 °F 93% 29.92 in 2.5 mi Calm Calm - N/A   Overcast
5:36 PM 14.0 °F - 12.2 °F 93% 29.92 in 3.0 mi Calm Calm - N/A   Overcast
5:56 PM 14.0 °F - 12.2 °F 93% 29.92 in 2.0 mi Calm Calm - N/A   Overcast
6:16 PM 14.0 °F - 12.2 °F 93% 29.91 in 2.5 mi Calm Calm - N/A   Overcast
6:36 PM 14.0 °F - 12.2 °F 93% 29.91 in 2.5 mi Calm Calm - N/A   Overcast
6:56 PM 14.0 °F - 12.2 °F 93% 29.92 in 2.0 mi Calm Calm - N/A   Overcast
7:16 PM 14.0 °F - 12.2 °F 93% 29.92 in 2.5 mi Calm Calm - N/A   Overcast
7:36 PM 14.0 °F - 12.2 °F 93% 29.92 in 3.0 mi Calm Calm - N/A   Overcast
7:56 PM 14.0 °F - 12.2 °F 93% 29.92 in 3.0 mi Calm Calm - N/A   Overcast
8:16 PM 14.0 °F - 12.2 °F 93% 29.92 in 2.0 mi Calm Calm - N/A   Overcast
8:36 PM 14.0 °F - 12.2 °F 93% 29.92 in 2.0 mi Calm Calm - N/A   Overcast
8:56 PM 14.0 °F 8.2 °F 12.2 °F 93% 29.92 in 1.5 mi NNE 3.5 mph - N/A   Overcast
9:16 PM 15.8 °F 10.2 °F 14.0 °F 93% 29.93 in 1.2 mi NNW 3.5 mph - N/A   Overcast
9:56 PM 15.8 °F 4.2 °F 14.0 °F 93% 29.94 in 2.5 mi North 9.2 mph - N/A   Mostly Cloudy
10:16 PM 15.8 °F 4.2 °F 14.0 °F 93% 29.95 in 1.2 mi North 9.2 mph 18.4 mph N/A   Overcast
10:36 PM 15.8 °F 6.1 °F 14.0 °F 93% 29.96 in 1.8 mi North 6.9 mph - N/A   Overcast
10:56 PM 15.8 °F 4.2 °F 12.2 °F 86% 29.96 in 4.0 mi North 9.2 mph - N/A   Overcast
11:16 PM 15.8 °F 8.6 °F 12.2 °F 86% 29.97 in 5.0 mi NNW 4.6 mph - N/A   Overcast
11:36 PM 15.8 °F 7.2 °F 12.2 °F 86% 29.98 in 3.0 mi North 5.8 mph - N/A   Overcast
11:56 PM 15.8 °F 8.6 °F 12.2 °F 86% 29.99 in 2.0 mi WNW 4.6 mph - N/A   Overcast